Theta_e
323 330 329 331 339 343 345 338 336 336 340 345 344 344 349 348 354 369 351 346 336 339 341 342 341 350 347 343 346 341 333 335 335 334 331 332 336 340 341 342 343 345 344 344 343 343 342 341 341
324 325 327 333 339 343 336 335 335 335 336 343 345 346 347 357 352 356 352 342 336 339 340 344 339 345 346 345 344 336 333 334 334 333 332 329 332 336 339 342 344 345 344 344 343 342 341 340 339
325 327 329 335 336 339 336 334 335 340 340 344 342 342 348 353 353 353 351 340 338 339 338 345 336 340 342 342 338 335 334 334 335 335 334 329 333 335 338 341 342 345 344 343 336 334 333 332 330
325 328 329 334 334 333 333 334 335 343 346 346 344 344 353 353 351 350 347 338 339 339 340 338 332 336 339 339 338 336 335 335 335 338 335 334 330 333 333 334 338 340 340 337 335 334 334 334 333
323 327 330 333 332 333 333 333 335 342 344 345 346 346 354 354 347 346 342 338 338 338 344 342 331 335 338 339 340 338 335 335 335 335 335 335 334 332 333 333 335 336 336 335 334 334 334 335 335
327 328 330 332 331 331 332 332 332 341 343 344 345 345 354 351 346 344 342 339 338 339 346 345 335 334 337 339 341 339 336 336 337 336 336 335 335 336 335 335 335 336 336 334 334 335 335 336 336
326 329 331 332 330 331 330 332 336 339 342 343 343 349 355 352 345 344 343 340 339 340 344 344 344 344 335 336 339 339 338 336 336 338 338 336 336 336 337 338 340 340 339 338 338 337 338 337 337
326 328 329 329 329 329 330 332 333 339 342 348 345 347 353 354 346 346 345 342 341 340 343 344 344 343 343 344 336 337 337 337 336 337 337 338 338 338 338 338 338 338 339 339 340 340 340 339 338
326 328 330 330 329 328 329 330 330 336 342 345 345 349 351 353 347 346 346 345 343 342 342 344 343 343 342 342 341 337 335 336 337 338 337 340 344 345 347 344 346 340 342 343 343 343 343 341 337
326 331 331 329 328 328 328 329 329 331 336 341 343 340 344 352 352 347 346 346 346 344 342 343 343 344 343 343 346 341 341 340 340 341 345 343 343 344 345 345 342 343 339 341 339 338 336 335 346
326 329 328 326 327 328 328 327 327 328 329 332 331 338 342 351 354 350 347 345 345 346 345 344 344 344 343 343 348 342 341 340 340 340 343 341 341 343 343 345 346 342 341 342 342 344 343 345 344
323 325 325 326 326 326 327 328 327 327 328 327 327 332 337 346 351 347 346 345 345 346 346 346 346 346 345 343 344 345 343 342 341 341 342 342 341 341 341 339 340 342 343 344 344 343 343 343 342
322 324 324 325 326 326 327 326 326 326 328 329 330 333 335 341 348 346 346 346 346 347 348 348 347 350 349 348 344 345 345 344 343 342 343 341 340 339 340 339 339 338 340 341 342 343 344 346 345
323 323 325 325 325 326 326 326 325 328 328 329 331 331 333 336 345 347 348 349 350 349 349 348 348 352 353 351 349 347 347 346 345 343 342 344 341 339 339 339 339 339 339 340 342 342 344 347 346
326 324 324 324 325 325 326 325 326 330 328 329 330 330 332 337 338 344 350 353 353 353 352 350 350 351 354 353 353 352 349 347 345 344 344 345 345 342 341 338 337 338 340 341 342 345 346 347 346
324 323 324 325 324 325 326 324 330 330 330 331 332 334 332 337 342 346 348 351 353 354 353 350 349 350 354 353 353 351 350 350 347 345 345 347 346 345 344 341 337 337 336 337 342 344 345 345 344
324 325 324 327 326 326 326 325 331 331 331 333 334 338 338 349 351 352 352 352 354 354 355 354 350 348 352 354 352 352 350 351 349 347 345 346 347 344 344 341 339 338 338 338 338 340 344 345 345
326 324 326 327 327 327 327 327 333 331 332 333 336 340 345 347 346 347 351 353 353 352 352 353 353 352 350 352 354 352 352 351 350 348 346 346 345 344 344 343 344 342 344 345 344 345 346 347 345
326 326 325 325 327 327 327 327 330 333 332 334 338 343 346 349 346 346 345 348 349 350 352 353 352 352 352 351 351 350 350 349 348 346 344 344 343 343 344 345 345 346 347 348 347 348 349 347 348
325 324 325 325 326 327 327 326 328 333 333 335 339 342 345 346 344 343 343 343 344 346 347 349 351 352 351 349 348 347 346 346 347 348 350 350 350 350 352 349 349 346 345 345 345 341 328 331 340
325 325 326 326 327 328 327 327 329 332 335 339 340 341 343 344 345 343 342 343 344 344 344 345 346 350 352 353 350 350 350 351 347 348 345 340 340 341 345 345 339 340 338 338 338 336 332 329 330
326 326 326 327 328 329 329 328 328 332 337 339 341 341 342 343 342 342 343 342 342 342 342 341 341 344 345 346 348 349 348 347 344 342 339 340 339 339 340 340 340 342 330 329 329 328 327 330 331
327 326 327 327 327 328 328 330 328 332 337 338 340 340 341 342 341 341 340 339 336 336 336 336 337 340 340 341 342 342 343 341 340 338 336 337 336 335 334 334 336 339 340 339 339 335 335 336 336
326 326 327 327 327 329 329 328 328 330 334 336 340 340 340 340 340 339 337 335 332 331 330 329 330 331 333 334 336 337 337 336 335 334 333 332 331 329 328 331 331 330 333 334 335 336 337 336 336
325 328 330 330 330 329 328 327 328 330 331 332 341 340 339 339 339 337 335 332 331 330 329 329 329 328 327 326 326 327 328 327 326 326 326 326 325 324 324 323 325 325 326 326 325 327 330 335 337
326 328 329 330 330 329 330 330 328 329 332 334 338 338 338 338 337 335 332 331 330 329 328 329 328 326 326 325 324 323 322 321 320 321 319 319 319 320 321 321 321 321 322 324 323 322 326 327 333
327 329 328 329 330 330 329 332 335 334 336 335 338 339 338 338 336 334 332 330 329 329 328 328 327 326 325 324 323 322 321 322 323 323 322 321 321 320 320 320 319 319 318 320 323 321 323 325 326
327 326 330 330 334 335 331 331 331 336 337 336 338 339 338 338 336 334 332 330 330 329 327 326 325 325 324 323 321 321 322 322 323 322 321 321 321 320 319 318 318 318 318 319 321 322 322 319 322
328 329 329 331 332 334 334 331 329 337 334 336 336 336 337 338 336 334 332 330 330 329 327 326 326 325 323 322 322 322 322 322 322 321 320 320 319 319 317 316 316 316 316 317 318 320 319 322 322
329 329 331 333 333 331 331 330 329 330 332 334 334 334 334 336 335 333 331 329 329 328 326 325 323 323 323 322 323 322 321 321 322 321 320 319 318 317 316 315 314 313 313 314 315 316 317 319 320
Wind_Speed
12 11 14 13 7 8 11 13 6 8 17 9 8 12 8 10 15 6 9 9 19 21 21 19 19 18 18 17 16 14 14 13 13 14 15 16 18 19 19 19 18 16 15 14 14 13 12 12 13
11 13 15 7 9 9 11 8 12 10 10 6 10 3 12 14 14 10 12 14 21 21 20 18 20 18 17 18 17 16 15 13 13 14 14 16 17 18 19 18 16 14 13 13 12 11 10 9 7
12 12 10 10 6 7 11 10 7 10 8 5 14 9 7 9 11 7 14 21 22 20 20 20 22 19 18 17 16 15 15 14 13 13 13 14 15 17 17 16 14 13 12 11 12 11 10 9 9
8 7 6 10 6 9 9 7 4 10 8 3 7 11 11 9 4 6 18 23 21 21 19 20 23 21 19 17 15 15 14 14 13 12 12 12 14 14 14 13 12 11 10 10 9 8 8 8 7
12 9 13 11 4 8 7 4 3 10 13 11 3 16 12 9 11 16 22 21 20 20 19 20 21 20 19 18 18 16 16 15 13 13 12 11 11 12 11 11 10 9 8 7 7 7 5 5 4
8 6 13 7 6 4 7 4 5 8 7 9 9 16 12 12 15 20 20 19 18 19 18 19 21 20 18 17 17 16 16 15 13 12 12 11 11 10 10 9 8 7 6 4 3 3 2 1 1
12 12 16 4 8 5 6 2 4 10 10 10 7 18 19 14 16 19 18 17 17 18 19 18 18 18 18 17 16 16 15 15 14 13 11 11 10 9 8 7 6 5 5 3 3 2 2 3 3
9 12 18 8 9 11 4 4 2 10 6 13 9 8 16 16 17 17 17 17 17 17 19 18 18 17 16 15 16 16 15 14 14 13 12 11 10 10 9 8 7 6 5 5 4 4 4 6 7
10 11 13 12 3 8 3 2 6 4 6 5 9 21 16 15 16 16 16 16 18 17 18 18 19 18 17 15 16 16 15 14 14 12 13 12 9 9 10 8 12 7 8 8 8 8 8 10 10
11 13 15 9 6 3 3 5 3 5 4 8 6 9 9 13 14 16 16 16 17 18 19 19 19 19 17 15 14 13 12 12 12 11 11 11 10 10 10 11 11 11 11 11 10 9 11 14 13
14 17 5 4 2 6 7 6 2 6 7 10 9 10 7 9 12 13 15 15 16 17 16 16 15 15 16 15 13 14 14 12 12 12 12 12 11 10 11 10 9 10 12 10 13 11 11 16 10
16 14 4 3 3 9 9 6 8 8 11 8 2 4 5 6 10 12 11 14 14 14 13 14 17 14 14 12 12 12 13 12 12 13 13 11 10 10 10 11 11 11 12 10 12 14 8 6 8
14 12 9 7 10 10 3 11 10 4 7 6 3 5 3 5 7 9 7 6 8 10 13 14 15 16 14 10 12 12 11 11 11 11 14 14 12 11 10 11 12 12 12 13 12 12 11 11 12
13 12 10 14 13 9 11 11 5 5 1 3 3 6 8 6 7 6 4 8 5 5 8 11 15 16 15 15 12 12 12 12 12 12 12 14 13 12 12 13 13 14 15 15 14 14 13 13 14
6 11 14 13 11 11 9 14 13 5 2 2 1 0 4 5 5 4 10 5 8 8 7 11 14 16 16 16 15 15 13 13 13 14 13 13 14 13 12 13 14 15 15 16 16 15 14 15 16
15 15 15 17 14 9 9 15 13 7 5 3 2 5 2 3 6 3 2 4 4 4 9 9 13 16 16 16 16 15 15 15 15 15 15 15 16 15 14 14 15 14 15 16 16 17 16 17 16
12 14 17 12 12 12 13 15 14 7 7 3 2 6 7 14 10 7 5 2 4 2 7 8 10 12 15 14 14 14 13 15 15 16 16 16 16 17 17 15 14 13 15 15 16 17 17 18 17
16 16 10 8 12 9 14 12 13 8 8 6 4 6 9 10 10 8 6 4 3 2 2 5 8 10 12 13 13 14 14 15 15 16 16 14 15 15 15 14 14 13 13 15 17 17 17 18 19
11 6 9 11 9 12 16 14 14 11 10 9 6 5 8 11 11 11 8 8 7 5 2 4 6 7 9 12 13 13 15 14 15 14 13 12 12 12 11 12 11 11 14 14 16 19 16 19 20
13 14 14 11 10 10 16 19 9 13 13 6 7 7 6 8 8 9 9 9 7 6 6 4 2 3 8 11 12 11 12 12 8 6 7 4 1 2 2 7 4 11 11 10 7 10 25 28 35
16 17 14 14 15 12 16 17 18 13 10 9 6 7 6 6 9 8 8 8 8 8 8 8 7 6 5 6 4 7 1 3 4 5 7 5 4 3 0 2 3 14 12 17 11 10 22 22 42
18 16 15 12 14 14 23 14 20 21 17 15 11 10 9 9 7 7 9 11 12 12 10 11 8 5 6 9 4 2 2 1 5 8 8 4 4 6 7 9 5 9 9 13 11 8 15 13 18
17 15 12 16 13 16 15 11 14 21 20 17 13 11 9 11 10 9 10 11 13 14 13 13 13 13 11 10 11 9 12 10 7 5 4 4 8 12 12 11 10 8 9 9 5 5 13 14 13
13 14 11 14 14 15 20 18 15 15 22 23 17 14 12 11 12 11 12 12 12 13 13 14 14 14 12 12 11 10 8 5 3 3 4 6 6 8 11 9 9 8 7 9 8 6 9 14 19
17 12 11 14 13 16 19 20 14 3 11 15 20 17 14 12 13 12 12 13 11 11 12 12 11 12 12 13 13 12 11 10 7 4 6 5 6 8 10 10 11 12 12 13 13 15 15 19 14
16 17 14 18 15 17 14 10 12 5 9 11 16 16 14 13 13 13 13 13 12 10 9 10 10 10 10 10 10 9 6 9 10 10 9 10 10 10 12 12 13 13 14 15 16 16 13 18 17
21 20 20 22 21 17 15 11 8 14 15 15 16 16 14 13 13 13 13 11 11 9 7 7 7 7 7 8 8 9 9 10 8 8 10 9 9 10 12 13 14 15 15 14 15 13 15 15 17
24 18 14 12 18 20 17 18 14 20 18 18 18 17 15 14 13 13 13 12 12 10 8 8 8 7 7 7 8 8 6 5 6 6 8 9 9 11 13 14 14 15 14 13 14 15 12 15 18
17 17 18 15 15 14 16 15 9 16 15 17 16 16 15 16 15 14 15 16 12 10 12 8 7 9 9 8 7 5 4 3 5 6 8 10 10 12 13 14 15 15 14 13 13 13 13 12 14
22 24 21 15 23 15 18 18 3 4 12 19 18 17 16 16 17 16 17 19 15 11 9 10 9 11 10 8 4 2 1 2 3 5 7 9 12 14 15 16 16 16 16 15 13 13 14 13 11
Wind_Direction
304 296 293 282 245 171 209 99 71 62 80 58 97 34 54 36 10 41 133 144 142 140 146 148 155 148 154 161 160 153 145 136 124 113 107 109 113 114 112 109 108 108 107 105 103 97 91 86 83
289 293 268 274 260 347 74 63 73 62 68 89 79 240 59 71 27 95 140 147 143 141 145 150 159 156 156 161 162 158 150 143 133 123 117 116 119 122 120 119 118 117 115 113 108 103 98 92 84
295 281 280 244 230 192 93 62 64 97 110 134 97 39 37 24 59 107 112 146 141 145 147 159 160 162 162 163 164 161 156 150 142 133 126 123 126 127 126 126 124 123 121 119 112 108 101 94 86
290 230 240 260 66 71 39 60 89 130 131 79 139 79 98 45 51 85 143 146 144 147 149 162 162 163 165 166 167 165 160 156 149 143 137 132 133 134 134 132 132 131 129 124 117 106 103 95 88
254 262 260 244 59 75 63 38 213 183 143 136 1 105 79 75 97 126 143 149 152 148 145 154 163 164 167 168 170 170 169 166 162 157 152 147 142 141 143 140 140 139 140 133 122 114 109 89 81
267 257 257 193 126 134 72 2 187 269 134 140 142 118 96 120 120 135 147 153 155 148 144 157 164 166 168 172 173 175 175 172 170 167 165 162 162 159 156 154 151 148 149 142 140 128 121 112 41
261 283 271 167 111 144 29 4 266 216 222 185 118 97 107 113 132 143 153 157 154 153 149 156 161 166 171 174 177 179 181 180 180 179 178 177 179 177 178 171 168 168 172 180 196 208 230 263 268
289 288 279 264 160 102 61 88 221 249 294 60 336 106 124 119 144 152 159 163 162 163 157 163 166 168 171 178 182 184 187 188 189 189 188 190 193 196 198 195 205 198 212 220 236 250 265 275 272
252 267 258 208 229 121 118 24 69 330 347 336 51 50 69 127 154 163 168 172 170 170 169 169 174 176 177 177 187 186 192 194 198 199 200 200 202 215 218 218 227 233 228 235 243 252 256 259 251
235 244 260 33 56 351 69 301 15 238 172 141 131 93 101 146 171 177 178 180 182 177 180 179 183 177 183 176 180 184 193 195 201 205 207 203 219 214 220 213 230 245 240 241 245 253 267 263 252
236 251 351 138 12 308 308 252 230 272 226 79 45 107 139 170 185 199 188 181 185 178 186 187 184 180 189 184 174 191 195 200 207 210 211 217 224 222 223 222 228 232 244 245 244 247 250 249 269
243 243 319 220 163 258 257 324 252 242 44 38 307 37 132 184 195 214 193 174 177 173 185 187 178 187 204 193 194 195 205 200 207 210 212 220 231 231 237 232 229 217 226 236 229 249 236 268 267
233 246 222 253 240 242 252 239 265 196 32 286 271 156 234 196 222 204 181 172 141 174 174 188 184 187 199 215 197 213 212 209 216 210 211 211 219 227 231 243 245 245 238 239 246 245 258 255 244
205 245 225 232 233 205 238 227 197 105 258 247 269 258 185 217 202 181 170 141 150 190 173 193 191 183 197 202 213 207 218 221 220 229 221 215 220 226 228 231 238 244 245 247 249 256 263 253 271
232 243 230 231 228 235 236 249 216 84 184 167 223 356 325 199 185 195 154 171 170 185 207 190 194 191 198 202 206 214 218 221 227 223 219 222 224 231 235 239 243 245 249 254 260 266 270 267 271
234 227 244 201 212 205 229 245 128 170 192 152 87 59 94 130 139 87 120 120 132 195 186 199 198 194 200 208 208 215 218 222 224 223 222 220 225 226 228 239 247 251 258 262 264 268 263 269 275
208 230 219 141 199 206 211 233 133 182 182 169 136 72 45 81 66 46 9 104 138 181 180 204 211 211 200 211 218 222 226 224 225 225 224 220 221 223 226 239 247 253 258 263 265 262 260 264 267
211 219 191 223 176 215 217 237 145 182 190 189 117 94 85 81 64 62 41 69 129 177 190 215 213 218 217 213 218 229 228 229 232 228 225 225 228 229 227 235 242 245 249 252 254 260 267 283 289
305 262 254 200 172 208 228 233 181 170 212 187 139 103 94 78 56 52 41 39 40 21 260 223 209 200 212 219 219 224 227 228 229 230 230 225 229 235 231 242 246 242 249 265 287 290 284 274 278
249 249 246 252 215 212 246 237 236 164 219 196 172 139 116 108 81 69 69 69 66 67 47 34 348 210 222 225 232 252 229 220 214 166 118 132 169 218 221 243 286 262 278 272 279 359 352 353 322
237 246 243 245 195 220 262 256 222 175 190 168 171 135 129 117 116 110 93 87 89 84 80 71 51 33 10 325 223 228 38 179 193 150 113 86 52 37 322 179 274 276 271 283 284 306 298 325 311
248 224 259 260 238 239 212 248 217 185 194 191 173 174 153 139 120 108 108 98 89 95 84 68 61 46 28 11 33 263 212 323 80 67 70 40 11 4 6 347 330 278 277 274 280 298 277 285 277
245 274 213 244 243 254 235 238 271 176 189 193 182 171 158 150 145 143 122 104 95 94 87 79 74 69 60 54 41 49 71 79 78 63 34 338 325 328 333 322 309 298 282 276 302 297 290 276 265
239 246 237 242 246 243 243 253 246 191 193 196 167 171 163 162 148 142 129 127 116 103 94 86 82 76 73 73 72 75 77 69 55 12 332 336 348 3 17 16 12 12 348 358 349 324 303 302 291
222 217 226 223 227 244 242 236 234 222 176 180 158 167 169 168 152 150 151 139 128 118 113 104 91 88 86 84 86 88 94 96 87 64 61 41 37 23 21 16 11 7 7 1 1 355 8 321 308
220 219 243 249 244 250 196 220 240 147 124 134 155 161 165 177 161 162 153 148 144 129 121 117 111 104 100 99 96 93 87 81 82 60 48 42 32 24 16 15 13 6 2 357 354 356 0 329 322
233 213 237 263 276 279 270 204 132 149 159 160 161 164 175 180 172 166 154 161 144 140 130 125 122 119 113 111 103 94 84 70 63 45 24 31 27 16 9 7 4 2 357 350 343 340 343 333 326
231 257 228 236 256 265 272 272 267 171 176 172 172 177 180 180 182 177 165 169 169 156 147 147 156 149 139 132 127 106 89 60 40 35 32 25 16 8 0 356 354 354 351 346 338 329 331 326 317
222 241 251 271 265 257 255 249 6 156 204 183 189 182 184 186 186 187 177 178 177 183 176 170 182 166 158 145 129 115 85 52 39 27 15 5 358 353 347 341 335 332 333 334 331 322 309 310 313
234 252 224 234 241 250 264 273 7 226 170 180 193 187 190 196 191 187 184 184 194 186 181 171 179 168 156 155 157 108 82 39 21 10 1 351 342 336 331 327 324 319 315 313 314 312 310 304 314